Flag for Israel Weather past 2 weeks in Rishon LeZion, Israel

Now
77 °F

Clear.


Feels Like: 79 °F
Forecast: 73 / 85 °F
Wind: 2 mph from North

Location: Ben Gurion International Airport

Current Time: Sep 22, 2014 at 9:52:56 PM

Latest Report: Sep 22, 2014 at 8:50 PM


Visibility: 10 mi

Pressure: 29.89 "Hg

Humidity: 69%

Dew point: 66 °F

Location of Rishon LeZionLocation

Historic Weather in Rishon LeZion — Graph

°F

Rishon LeZion temperature yesterday

Maximum temperature yesterday: 86 °F (at 12:50 PM)
Minimum temperature yesterday: 72 °F (at 5:20 AM)
Average temperature yesterday: 79 °F

Past Weeks' High & Low Weather Summary

 TemperatureHumidityPressure
High100 °F (Sep 17, 1:20 PM)83% (Sep 16, 4:20 AM)29.98 "Hg (Sep 16, 4:20 AM)
Low70 °F (Sep 17, 6:20 AM)20% (Sep 17, 10:50 AM)29.68 "Hg (Sep 17, 3:50 PM)
Average80 °F62%29.88 "Hg
* Reported Sep 7 8:20 PM — Sep 22 8:20 PM, Rishon LeZion, Weather by CustomWeather, © 2014

Note: Actual official high and low records may vary slightly from our data, if they occured in-between our weather recording intervals... More about our weather records

Advertising

Rishon LeZion weather history for previous 24 hours

 ConditionsComfort  
Time TempWeatherWind HumidityBarometerVisibility
8:20 PM
Sep 22
79 °FWarm.3 mph61%29.89 "HgN/A
7:50 PM79 °FPassing clouds.5 mph65%29.89 "HgN/A
7:20 PM79 °FPassing clouds.7 mph65%29.89 "HgN/A
6:50 PM81 °FPassing clouds.9 mph62%29.89 "HgN/A
6:20 PM81 °FPassing clouds.10 mph62%29.86 "HgN/A
5:50 PM81 °FScattered clouds.9 mph62%29.86 "HgN/A
5:20 PM82 °FScattered clouds.10 mph58%29.86 "HgN/A
4:50 PM84 °FPassing clouds.10 mph55%29.86 "HgN/A
4:20 PM84 °FPassing clouds.10 mph55%29.86 "HgN/A
3:50 PM86 °FPassing clouds.9 mph52%29.86 "HgN/A
3:20 PM84 °FPassing clouds.10 mph55%29.86 "HgN/A
2:50 PM86 °FPassing clouds.12 mph52%29.86 "HgN/A
2:20 PM86 °FPassing clouds.9 mph49%29.86 "HgN/A
1:50 PM84 °FPassing clouds.9 mph51%29.89 "HgN/A
1:20 PM84 °FScattered clouds.12 mph51%29.89 "HgN/A
12:50 PM84 °FPassing clouds.13 mph51%29.89 "HgN/A
12:20 PM86 °FScattered clouds.9 mph49%29.89 "HgN/A
11:50 AM84 °FScattered clouds.10 mph51%29.89 "HgN/A
11:20 AM84 °FScattered clouds.10 mph48%29.92 "HgN/A
10:50 AM84 °FScattered clouds.7 mph45%29.92 "HgN/A
10:20 AM82 °FScattered clouds.5 mph51%29.92 "HgN/A
9:50 AM81 °FScattered clouds.6 mph58%29.92 "HgN/A
9:20 AM81 °FPassing clouds.8 mph58%29.92 "HgN/A
8:50 AM79 °FPassing clouds.9 mph58%29.92 "HgN/A
8:20 AM77 °FPassing clouds.8 mph57%29.89 "HgN/A
7:50 AM73 °FPassing clouds.6 mph65%29.89 "HgN/A
7:20 AM72 °FPassing clouds.5 mph69%29.89 "HgN/A
6:50 AM72 °FPassing clouds.3 mph65%29.89 "HgN/A
6:20 AM72 °FPassing clouds.7 mph65%29.89 "HgN/A
5:50 AM72 °FPassing clouds.3 mph65%29.89 "HgN/A
5:20 AM72 °FPassing clouds.6 mph65%29.86 "HgN/A
4:50 AM72 °FPassing clouds.5 mph65%29.86 "HgN/A
4:20 AM72 °FPassing clouds.3 mph65%29.86 "HgN/A
3:50 AM72 °FPassing clouds.3 mph65%29.86 "HgN/A
3:20 AM72 °FPassing clouds.5 mph65%29.86 "HgN/A
2:50 AM72 °FPassing clouds.5 mph65%29.89 "HgN/A
2:20 AM72 °FPassing clouds.6 mph65%29.89 "HgN/A
1:50 AM73 °FPassing clouds.7 mph61%29.89 "HgN/A
1:20 AM75 °FPassing clouds.5 mph57%29.89 "HgN/A
12:50 AM75 °FPassing clouds.3 mph57%29.89 "HgN/A
12:20 AM75 °FPassing clouds.3 mph57%29.89 "HgN/A
11:20 PM
Sep 21
77 °FPassing clouds.3 mph57%29.89 "HgN/A
10:50 PM77 °FPassing clouds.2 mph57%29.89 "HgN/A
10:20 PM77 °FPassing clouds.3 mph57%29.89 "HgN/A
9:50 PM79 °FPassing clouds.5 mph54%29.89 "HgN/A
9:20 PM79 °FPassing clouds.5 mph54%29.89 "HgN/A
Weather by CustomWeather, © 2014

See weather overviewHow to use our weather pages